www.pogodaiklimat.ru

Погода и климат >> Архив погоды >> Индия >> Ассам >> Тезпур


ПОГОДА в Тезпуре

  • Прогноз погоды в Тезпуре
  • Монитор погоды в Тезпуре

АРХИВ ПОГОДЫ в Тезпуре

Время (UTC), дата Ветер
(напр.,м/с)
 
Видим.   Явления Облачность Т
(С)
Тd
(С)
f
(%)
Тe
(С)
Тes
(С)
Комфортность P
(гПа)
Po
(гПа)
Тmin
(С)
Tmax
(С)
R
(мм)
R24
(мм)
S
(см)
00 18.08 штиль 0 4000 м 10/6 300 м
[St As op]
+28.6 +26.9 91 +45 +45 опасность
перегрева
1005.2 996.2
03 18.08 штиль 0 4000 м 10/6 300 м
[Cb calv As op]
+30.8 +26.9 80 +48 +50 опасность
перегрева
1007.1 998.2 +27.8
06 18.08 ЮЗ 1 4000 м 4/1 750 м
[Cu hum Ac trans]
+32.6 +27.4 74 +51 +69 опасность
перегрева
1006.2 997.4
09 18.08 штиль 0 4000 м 6/4 600 м
[Sc diur, vesp Ci fib]
+33.4 +27.4 71 +53 +60 опасность
перегрева
1003.8 995.0
12 18.08 штиль 0 4000 м 3/3 600 м
[Sc diur, vesp]
+31.4 +27.3 79 +50 +50 опасность
перегрева
1003.1 994.2 +33.8
00 19.08 штиль 0 4000 м {гроза, дождь} 6/4 600 м
[Sc diur, vesp Ac trans]
+27.6 +26.2 92 +42 +42 опасность
перегрева
1006.4 997.4 0.5
03 19.08 штиль 0 4000 м 10/8 300 м
[Frnb As trans]
+29.4 +26.6 85 +45 +47 опасность
перегрева
1008.0 999.0 +26.7 0.5
06 19.08 ЮЗ 1 4000 м 9/5 600 м
[Sc diur, vesp Ac As]
+31.6 +26.6 75 +49 +54 опасность
перегрева
1006.8 997.9
09 19.08 ЮЗ 1 4000 м 9/4 600 м
[Sc diur, vesp Ac trans]
+31.6 +26.6 75 +49 +52 опасность
перегрева
1004.9 996.0
12 19.08 штиль 0 4000 м 4/3 600 м
[Sc diur, vesp Ac trans]
+30.8 +26.6 78 +47 +47 опасность
перегрева
1003.2 994.3 +32.6
00 20.08 штиль 0 4000 м 8/4 600 м
[Sc Ac trans]
+27.6 +26.5 94 +42 +43 опасность
перегрева
1005.8 996.8
03 20.08 штиль 0 4000 м 8/5 600 м
[Sc diur, vesp Ac trans]
+31.8 +26.8 75 +49 +54 опасность
перегрева
1006.5 997.6 +26.7
06 20.08 штиль 0 4000 м 8/5 600 м
[Sc diur, vesp Ac trans]
+31.8 +27.1 76 +50 +59 опасность
перегрева
1005.4 996.5
09 20.08 штиль 0 4000 м 8/3 600 м
[Sc diur, vesp Ci fib]
+33.4 +27.9 73 +54 +62 опасность
перегрева
1002.2 993.4
12 20.08 штиль 0 4000 м 8/3 600 м
[Sc diur, vesp Ac trans Ci fib]
+31.8 +27.7 79 +51 +51 опасность
перегрева
1001.4 992.6 +33.9
00 21.08 штиль 0 4000 м 8/4 600 м
[Sc diur, vesp Ac trans]
+28.2 +27.1 94 +45 +45 опасность
перегрева
1004.9 995.9
03 21.08 штиль 0 4000 м 9/4 540 м
[Sc diur, vesp Ac trans]
+30.2 +27.2 84 +48 +53 опасность
перегрева
1005.6 996.7 +27.6
06 21.08 штиль 0 4000 м 9/5 540 м
[Sc diur, vesp Ac trans]
+31.8 +27.1 76 +50 +57 опасность
перегрева
1004.3 995.4
09 21.08 штиль 0 4000 м 5/1 600 м
[Sc diur, vesp Ci fib]
+33.6 +28.2 73 +55 +66 опасность
перегрева
1001.7 992.9
12 21.08 штиль 0 4000 м 6/0
[Ci fib]
+32.0 +28.5 82 +54 +54 опасность
перегрева
1001.0 992.2 +34.3
00 22.08 штиль 0 4000 м 6/6 600 м
[Sc diur, vesp]
+28.8 +27.7 94 +47 +47 опасность
перегрева
1004.0 995.1
03 22.08 штиль 0 4000 м 9/4 600 м
[Sc As trans]
+30.6 +28.4 88 +52 +56 опасность
перегрева
1004.2 995.3 +27.8
06 22.08 штиль 0 4000 м 6/6 600 м
[Sc diur, vesp]
+34.2 +28.7 73 +57 +68 опасность
перегрева
1003.0 994.2
09 22.08 штиль 0 4000 м 5/0
[Ac trans Ci fib]
+33.8 +28.4 73 +55 +66 опасность
перегрева
1000.4 991.6
12 22.08 штиль 0 4000 м 3/1 750 м
[Cu hum Ac trans]
+32.4 +28.9 82 +56 +56 опасность
перегрева
999.6 990.8 +34.6
00 23.08 штиль 0 4000 м гроза без осадков 9/5 540 м
[Cb calv As trans]
+28.0 +26.6 92 +43 +43 опасность
перегрева
1004.2 995.2
03 23.08 штиль 0 4000 м {гроза} 10/5 300 м
[Frnb As op]
+28.6 +26.9 91 +45 +47 опасность
перегрева
1005.7 996.7 +27.2
06 23.08 СЗ 1 4000 м {гроза} 10/5 300 м
[Frnb As op]
+29.2 +27.0 88 +46 +48 опасность
перегрева
1004.4 995.5
09 23.08 ЮЗ 1 4000 м 8/4 600 м
[Sc Ac trans]
+29.8 +26.5 83 +46 +50 опасность
перегрева
1003.0 994.1
12 23.08 штиль 0 4000 м 8/4 600 м
[Sc Ac trans]
+29.6 +26.8 85 +46 +46 опасность
перегрева
1003.0 994.1 +30.4
00 24.08 штиль 0 4000 м 8/4 600 м
[Sc diur, vesp Ac trans]
+27.2 +26.4 95 +41 +42 опасность
перегрева
1006.5 997.5
03 24.08 штиль 0 4000 м 8/4 600 м
[Sc diur, vesp Ac trans]
+30.6 +26.1 77 +46 +52 опасность
перегрева
1007.6 998.7 +26.5
06 24.08 С 1 4000 м 4/1 750 м
[Cu hum Ac trans]
+33.8 +25.7 63 +49 +66 опасность
перегрева
1005.6 996.8
09 24.08 В 2 4000 м 5/3 600 м
[Sc diur, vesp Ac trans]
+34.4 +24.8 57 +47 +54 опасность
перегрева
1002.5 993.7
12 24.08 штиль 0 4000 м 1/0
[Ac trans]
+32.6 +26.2 69 +49 +49 опасность
перегрева
1001.8 993.0 +35.0

 

Местоположение метеостанции Тезпур (Ассам, Индия): широта 26.62 долгота 92.78 высота над уровнем моря 79 м.

В архиве по умолчанию представлена погода в Тезпуре за последнюю неделю. Архивные данные за месяц целиком и за предыдущие месяцы, начиная с января 2011 года, Вы можете получить, выбрав интересующий диапазон дат из раскрывающегося списка и нажав кнопку "Ввод!".


*Определитесь, кто Вы:
робот инопланетянин человек

Внимание! Время в таблицах - всемирное. Для получения местного времени необходимо прибавить поправку, которая равна 5.5 ч.

Смотрите также архив погоды в соседних городах и на ближайших метеорологических станциях:

Погода в Мазбате (Ассам, Индия) (45 км)
Погода в Чапармуке (Ассам, Индия) (53 км)
Погода в Тангле (Ассам, Индия) (86 км)
Погода в Итанагаре (Аруначал-Прадеш, Индия) (99 км)
Погода в Ламдинге (Ассам, Индия) (105 км)
Погода в Рейнджии (Ассам, Индия) (117 км)
Погода в Голагате (Ассам, Индия) (120 км)
Погода в Шиллонг аэропорту (Мегхалая, Индия) (130 км)
Погода в Гувахати (Ассам, Индия) (133 км)
Погода в Джорхате (Ассам, Индия) (142 км)

Пояснения к столбцам:

Ветер - указаны скорость ветра в м/с - средняя за 10 мин, порывы в срок и между сроками (в фигурных скобках) и направление, откуда дует ветер: С - северный, СВ - северо-восточный, В - восточный, ЮВ - юго-восточный, Ю - южный, ЮЗ - юго-западный, З - западный, СЗ - северо-западный.
Видимость - горизонтальная дальность видимости в метрах или километрах. При видимости от 1 до 10 км при отсутствии осадков обычно наблюдается дымка, при ухудшении видимости до 1 км и менее - туман. В сухую погоду видимость может ухудшаться дымом, пылью или мглою.
Явления - указаны атмосферные явления, наблюдавшиеся в срок или в последний час перед сроком; фигурными скобками обозначены явления, наблюдавшиеся между сроками (за 1-3 часа до срока); квадратными скобками обозначены град или гололедные отложения с указанием их диаметра в мм.
Облачность - указаны через наклонную черту общая и нижняя облачность в баллах и высота нижней границы облаков в метрах; квадратными скобками обозначены формы облаков: Ci - перистые, Cs - перисто-слоистые, Cc - перисто-кучевые, Ac - высококучевые, As - высокослоистые, Sc - слоисто-кучевые, Ns - слоисто-дождевые, Cu - кучевые, Cb - кучево-дождевые. Подробнее классификацию облаков см. в Атласе облаков (PDF).
T - Температура воздуха - температура, измеренная на высоте 2 м над землей.
Td - Температура точки росы - температура, при понижении до которой содержащийся в воздухе водяной пар достигнет насыщения.
f - Относительная влажность воздуха - влажноcть воздуха, измеренная на высоте 2 м над землей.
Te - Эффективная температура - температура, которую ощущает одетый по сезону человек в тени. Характеристика душности погоды. При расчете учитывается влияние влажности воздуха и скорости ветра на теплоощущения человека.
Tes - Эффективная температура на солнце - температура, которую ощущает человек, с поправкой на солнечный нагрев. Характеристика знойности погоды. Зависит от высоты солнца над горизонтом, облачности и скорости ветра. Ночью, в пасмурную погоду, а также при ветре 12 м/с и более поправка равна нулю.
P - Атмосферное давление - приведенное к уровню моря атмосферное давление.
Po - Атмосферное давление - измеренное на уровне метеостанции атмосферное давление.
Tmin - Минимальная температура - минимум температуры воздуха на высоте 2 м над землей.
Tmax - Максимальная температура - максимум температуры воздуха на высоте 2 м над землей.
R - Количество осадков - Количество выпавших осадков за период времени, мм. При наведении курсора мыши на число - период времени, за который выпало указанное количество осадков.
R24 - Количество осадков - Количество выпавших осадков за 24 часа, мм.
S - Снежный покров - Высота снежного покрова, см. При наведении курсора мыши на число - состояние снежного покрова и степень покрытия местности в баллах.